[[{"header":{"parameterUnit":"m.s-1","parameterCategory":2,"la1":30.2991,"la2":30.254,"lo1":-89.0895,"lo2":-89.0444,"dy":0.0017,"dx":0.0017,"nx":28,"ny":28,"refTime":"2025-07-21T09:00:00:Z","depth":"0","parameterNumber":2,"parameterNumberName":"U-component_of_CURRENTS"},"data":[0,0,0,0,0,0,0,0,0,0,0,0,0,0,0,0,0,0,0,0,0,0,0,0,0,0,0,0,0,0,0,0,0,0,0,0,0,0,0,0,0,0,0,0,0,0,0,0,0,0,0,0,0,0,0,0,0,0,-0.2405,-0.2405,0,-0.2427,-0.2428,-0.2428,-0.2363,-0.2361,-0.2359,-0.2357,-0.2281,-0.2281,-0.2281,0,0,0,0,0,0,0,0,0,0,0,0,0,-0.2232,-0.2236,-0.2405,-0.2405,-0.2406,-0.2427,-0.2428,-0.2428,-0.2363,-0.2361,-0.2358,-0.2356,-0.2281,-0.2281,-0.2281,0,0,0,0,0,0,0,0,0,0,0,0,0,-0.2285,-0.2237,-0.2405,-0.2377,-0.2375,-0.2427,-0.2428,-0.2428,-0.2363,-0.2361,-0.2358,-0.2355,-0.2281,-0.2281,-0.2281,-0.2333,0,0,-0.2279,-0.2279,0,0,0,0,0,0,0,0,-0.2282,-0.2291,-0.2381,-0.2379,-0.2377,-0.2391,-0.2339,-0.2392,-0.2364,-0.2366,-0.2357,-0.2354,-0.2312,-0.2309,-0.2318,-0.2329,-0.2326,-0.2279,-0.2279,-0.2279,-0.2278,0,0,0,0,0,0,0,-0.2279,-0.2289,-0.2412,-0.2382,-0.2379,-0.2339,-0.2344,-0.2349,-0.2351,-0.2365,-0.2361,-0.2368,-0.231,-0.2319,-0.2316,-0.2325,-0.2279,-0.2279,-0.2278,-0.2278,-0.2313,-0.2314,0,0,0,0,0,0,-0.2287,-0.2287,-0.2411,-0.2413,-0.2324,-0.2345,-0.235,-0.2388,-0.2353,-0.2346,-0.237,-0.2365,-0.2321,-0.2316,-0.2313,-0.232,-0.2279,-0.2278,-0.2278,-0.2312,-0.2313,-0.2314,0,0,0,0,0,0,-0.2284,-0.23,-0.241,-0.2349,-0.236,-0.2351,-0.2394,-0.239,-0.2384,-0.2358,-0.2348,-0.2367,-0.2319,-0.2313,-0.2317,-0.2318,-0.2278,-0.2278,-0.231,-0.2312,-0.2314,-0.2369,0,0,0,0,0,0,-0.228,-0.2299,-0.2321,-0.2351,-0.2364,-0.2436,-0.2396,-0.2392,-0.2394,-0.2387,-0.2353,-0.2344,-0.2316,-0.2318,-0.2317,-0.2317,-0.2277,-0.2309,-0.2311,-0.2313,-0.2366,-0.2372,-0.2378,0,0,0,0,0,-0.2274,-0.2312,-0.2323,-0.2337,-0.24,-0.2438,-0.2441,-0.2421,-0.2397,-0.2404,-0.2385,-0.2344,-0.233,-0.232,-0.2318,-0.2317,-0.2308,-0.231,-0.2313,-0.2363,-0.2371,-0.2378,0,0,0,0,0,0,-0.2236,-0.2311,-0.2322,-0.2379,-0.2406,-0.2427,-0.243,-0.2428,-0.2423,-0.2407,-0.2373,-0.2365,-0.2368,-0.2346,-0.2335,-0.2335,-0.2307,-0.231,-0.2346,-0.2353,-0.236,-0.2326,-0.2277,0,0,0,0,0,-0.2249,-0.2294,-0.2352,-0.2388,-0.2409,-0.2424,-0.2433,-0.2431,-0.2435,-0.2429,-0.241,-0.2389,-0.2385,-0.237,-0.2367,-0.2375,-0.2335,-0.237,-0.2376,-0.2382,-0.2354,-0.2349,-0.2351,-0.2323,-0.2323,-0.2323,0,0,-0.223,-0.2285,-0.2302,-0.2382,-0.2399,-0.2427,-0.2421,-0.2443,-0.2451,-0.2424,-0.242,-0.2419,-0.2397,-0.2403,-0.24,-0.2377,-0.2366,-0.2385,-0.239,-0.2358,-0.2352,-0.2354,-0.2356,-0.2325,-0.2325,-0.2324,0,0,-0.2219,-0.2284,-0.2313,-0.2351,-0.2401,-0.2423,-0.2433,-0.2467,-0.2465,-0.2487,-0.2464,-0.2461,-0.2459,-0.2436,-0.2426,-0.2467,-0.2412,-0.247,-0.246,-0.2457,-0.2459,-0.246,-0.2396,-0.2391,-0.246,-0.246,-0.2461,0,-0.2195,-0.2253,-0.232,-0.236,-0.2378,-0.2422,-0.244,-0.2465,-0.2488,-0.2486,-0.2483,-0.2477,-0.2465,-0.2453,-0.2465,-0.2476,-0.2451,-0.2434,-0.2464,-0.2464,-0.2464,-0.2399,-0.2392,-0.2463,-0.2463,-0.2463,-0.2462,0,-0.2199,-0.2248,-0.2268,-0.2339,-0.2373,-0.2399,-0.2453,-0.2476,-0.2487,-0.2498,-0.2503,-0.2504,-0.2485,-0.2496,-0.2491,-0.2486,-0.2461,-0.2485,-0.2441,-0.247,-0.24,-0.2392,-0.2468,-0.2467,-0.2466,-0.2465,0,0,-0.2147,-0.2248,-0.2254,-0.2272,-0.2364,-0.2384,-0.2427,-0.2464,-0.2467,-0.2495,-0.2488,-0.2496,-0.2494,-0.2482,-0.2483,-0.2476,-0.2461,-0.2479,-0.2478,-0.2407,-0.2413,-0.22,-0.2171,-0.2506,-0.2505,-0.2505,-0.2358,0,-0.2122,-0.2169,-0.2239,-0.2264,-0.2289,-0.2358,-0.2388,-0.2428,-0.2463,-0.2478,-0.2484,-0.2485,-0.2492,-0.2488,-0.2487,-0.249,-0.2446,-0.2495,-0.2402,-0.2396,-0.2198,-0.2157,-0.2075,-0.1921,-0.235,-0.2348,-0.2347,0,-0.2105,-0.214,-0.2162,-0.2224,-0.224,-0.2262,-0.2309,-0.2344,-0.2399,-0.2423,-0.2436,-0.2459,-0.2455,-0.2466,-0.2432,-0.2471,-0.2425,-0.2411,-0.2406,-0.2173,-0.2168,-0.1965,-0.189,-0.1915,-0.2335,-0.2336,-0.2337,0,-0.2019,-0.2087,-0.2092,-0.2116,-0.2197,-0.2207,-0.2239,-0.2306,-0.2334,-0.2382,-0.2405,-0.2417,-0.2411,-0.2402,-0.2339,-0.2414,-0.2265,-0.2372,-0.211,-0.2094,-0.1979,-0.1952,-0.1901,-0.2297,-0.2298,-0.2298,-0.2299,0,-0.1981,-0.1985,-0.2043,-0.2049,-0.2045,-0.2125,-0.2137,-0.2184,-0.225,-0.2267,-0.2354,-0.2351,-0.2402,-0.2334,-0.2307,-0.2125,-0.2223,-0.206,-0.2033,-0.1991,-0.1968,-0.1946,-0.2002,-0.2293,-0.2294,-0.2295,-0.2296,0,-0.1908,-0.1948,-0.1958,-0.2008,-0.2013,-0.2008,-0.2073,-0.2088,-0.2166,-0.2195,-0.2211,-0.2286,-0.2188,-0.2137,-0.2073,-0.2032,-0.1867,-0.1804,-0.17,-0.1661,-0.1499,-0.156,-0.1417,-0.1381,-0.1568,-0.1561,-0.1556,0,-0.1877,-0.1872,-0.1904,-0.19,-0.1922,-0.1929,-0.1941,-0.2023,-0.2052,-0.2133,-0.2133,-0.2068,-0.1978,-0.1758,-0.1636,-0.1455,-0.1543,-0.1302,-0.1427,-0.1412,-0.1466,-0.1547,-0.1538,-0.1311,-0.1304,-0.1298,-0.1294,0,-0.1811,-0.1824,-0.1832,-0.1824,-0.1823,-0.1828,-0.1848,-0.1857,-0.1949,-0.1956,-0.1925,-0.1856,-0.1641,-0.1401,-0.1138,-0.1081,-0.1299,-0.1177,-0.1234,-0.1274,-0.1293,-0.1269,-0.1459,-0.1244,-0.1249,-0.1252,-0.1255,-0.1257,-0.1753,-0.1741,-0.175,-0.1734,-0.1738,-0.1717,-0.1664,-0.169,-0.167,-0.1622,-0.1652,-0.1438,-0.1248,-0.0875,-0.0819,-0.0713,-0.0848,-0.0779,-0.0855,-0.0939,-0.0889,-0.089,-0.0599,-0.06,-0.0601,-0.0602,-0.0603,0,-0.1665,-0.166,-0.1654,-0.163,-0.1592,-0.162,-0.1593,-0.1507,-0.1401,-0.1305,-0.1189,-0.0838,-0.0647,-0.0548,-0.043,-0.0442,-0.0555,-0.0487,-0.0681,-0.0691,-0.0748,-0.0722,-0.0356,-0.0356,-0.0356,-0.0356,-0.0356,-0.0356,-0.1617,-0.1576,-0.1574,-0.1481,-0.1457,-0.1333,-0.1274,-0.1153,-0.1027,-0.0716,-0.0446,-0.027,-0.0193,-0.0334,-0.0394,-0.0412,-0.0528,-0.046,-0.0533,-0.0692,-0.0731,-0.0768,-0.0758,-0.0405,-0.0405,-0.0476,-0.0477,-0.0477]},{"header":{"parameterUnit":"m.s-1","parameterCategory":2,"la1":30.2991,"la2":30.254,"lo1":-89.0895,"lo2":-89.0444,"dy":0.0017,"dx":0.0017,"nx":28,"ny":28,"refTime":"2025-07-21T09:00:00:Z","depth":"0","parameterNumber":3,"parameterNumberName":"V-component_of_CURRENTS"},"data":[0,0,0,0,0,0,0,0,0,0,0,0,0,0,0,0,0,0,0,0,0,0,0,0,0,0,0,0,0,0,0,0,0,0,0,0,0,0,0,0,0,0,0,0,0,0,0,0,0,0,0,0,0,0,0,0,0,0,-0.0656,-0.0655,0,-0.0596,-0.0595,-0.0594,-0.0519,-0.0518,-0.0517,-0.0516,-0.0378,-0.0375,-0.0372,0,0,0,0,0,0,0,0,0,0,0,0,0,-0.0526,-0.0529,-0.0656,-0.0655,-0.0655,-0.0596,-0.0595,-0.0594,-0.0519,-0.0518,-0.0516,-0.0515,-0.0379,-0.0375,-0.0372,0,0,0,0,0,0,0,0,0,0,0,0,0,-0.0534,-0.0531,-0.0656,-0.0612,-0.0608,-0.0596,-0.0595,-0.0594,-0.0519,-0.0518,-0.0516,-0.0515,-0.038,-0.0376,-0.0372,-0.0375,0,0,-0.0359,-0.0357,0,0,0,0,0,0,0,0,-0.0534,-0.0538,-0.0619,-0.0615,-0.061,-0.0565,-0.0498,-0.0518,-0.0519,-0.055,-0.0516,-0.0514,-0.0436,-0.0427,-0.0417,-0.0369,-0.0363,-0.0359,-0.0356,-0.0354,-0.0353,0,0,0,0,0,0,0,-0.0533,-0.0539,-0.0629,-0.0619,-0.0613,-0.0534,-0.0535,-0.0501,-0.0499,-0.0547,-0.0542,-0.054,-0.0432,-0.0421,-0.0413,-0.0361,-0.0359,-0.0355,-0.0352,-0.0351,-0.027,-0.0271,0,0,0,0,0,0,-0.0558,-0.0541,-0.0631,-0.0628,-0.057,-0.0539,-0.0539,-0.0579,-0.05,-0.0488,-0.0542,-0.0537,-0.0429,-0.0418,-0.0407,-0.0406,-0.0354,-0.035,-0.0348,-0.027,-0.027,-0.0271,0,0,0,0,0,0,-0.0556,-0.0568,-0.0634,-0.0581,-0.0584,-0.0544,-0.0588,-0.0579,-0.0565,-0.0497,-0.0483,-0.0537,-0.0427,-0.0413,-0.0378,-0.04,-0.0348,-0.0345,-0.027,-0.027,-0.0271,-0.0405,0,0,0,0,0,0,-0.0553,-0.0569,-0.0598,-0.0585,-0.0589,-0.0641,-0.059,-0.0579,-0.0567,-0.056,-0.0489,-0.0475,-0.0425,-0.0384,-0.0374,-0.0394,-0.0341,-0.0269,-0.027,-0.027,-0.04,-0.041,-0.0418,0,0,0,0,0,-0.055,-0.0607,-0.0602,-0.0611,-0.0635,-0.0643,-0.0638,-0.0598,-0.0569,-0.0577,-0.052,-0.0477,-0.038,-0.0382,-0.0369,-0.0388,-0.0269,-0.027,-0.027,-0.0396,-0.0408,-0.0418,0,0,0,0,0,0,-0.0552,-0.0604,-0.0598,-0.0664,-0.0658,-0.0631,-0.0637,-0.0608,-0.0571,-0.0561,-0.0486,-0.0469,-0.0445,-0.0396,-0.0399,-0.0363,-0.0316,-0.0314,-0.0415,-0.0426,-0.0435,-0.049,-0.0338,0,0,0,0,0,-0.0573,-0.0632,-0.0646,-0.0688,-0.0701,-0.0669,-0.0663,-0.0643,-0.0611,-0.0593,-0.0541,-0.0482,-0.044,-0.0417,-0.0372,-0.0359,-0.0289,-0.0359,-0.0368,-0.0377,-0.0411,-0.0353,-0.0361,-0.0273,-0.0273,-0.0273,0,0,-0.0567,-0.0614,-0.0634,-0.0691,-0.0685,-0.0726,-0.0662,-0.0672,-0.0691,-0.0585,-0.0584,-0.0515,-0.0443,-0.0426,-0.041,-0.0388,-0.0347,-0.0378,-0.0386,-0.0416,-0.0355,-0.0363,-0.0371,-0.0274,-0.0274,-0.0274,0,0,-0.0614,-0.0649,-0.0722,-0.0744,-0.0769,-0.0757,-0.0768,-0.0754,-0.0736,-0.0728,-0.0651,-0.0606,-0.054,-0.05,-0.0469,-0.0503,-0.0398,-0.0471,-0.0567,-0.051,-0.0518,-0.0524,-0.0376,-0.0368,-0.0477,-0.0477,-0.0478,0,-0.0608,-0.072,-0.0729,-0.0813,-0.084,-0.0785,-0.0853,-0.0834,-0.0799,-0.0795,-0.0745,-0.0651,-0.0587,-0.0571,-0.0578,-0.053,-0.0445,-0.0535,-0.0526,-0.0531,-0.0535,-0.0382,-0.0371,-0.0484,-0.0483,-0.0482,-0.0482,0,-0.0699,-0.0802,-0.0844,-0.0944,-0.0967,-0.101,-0.1006,-0.1005,-0.0966,-0.0937,-0.0904,-0.0807,-0.0756,-0.0716,-0.066,-0.0654,-0.056,-0.0545,-0.0508,-0.0552,-0.0386,-0.0373,-0.0493,-0.0491,-0.0489,-0.0487,0,0,-0.0678,-0.0875,-0.0893,-0.0983,-0.1047,-0.1077,-0.1121,-0.1145,-0.1155,-0.11,-0.1103,-0.1028,-0.0958,-0.0919,-0.0825,-0.0773,-0.0696,-0.0682,-0.0676,-0.0551,-0.0495,-0.0391,-0.0364,-0.0679,-0.0679,-0.0679,-0.0341,0,-0.0751,-0.0948,-0.1014,-0.1164,-0.1267,-0.1263,-0.1303,-0.1307,-0.1268,-0.1246,-0.1156,-0.111,-0.1038,-0.099,-0.0942,-0.0754,-0.0679,-0.0784,-0.0457,-0.0446,-0.0365,-0.0355,-0.0312,-0.0007,-0.0328,-0.0325,-0.0324,0,-0.0821,-0.0968,-0.1143,-0.1325,-0.136,-0.1416,-0.1464,-0.1492,-0.1454,-0.1419,-0.1374,-0.1274,-0.1183,-0.1113,-0.0864,-0.0928,-0.0745,-0.0595,-0.0578,-0.0443,-0.0322,-0.0026,0.003,0.0124,-0.0302,-0.0304,-0.0305,0,-0.0803,-0.1052,-0.1198,-0.1257,-0.1431,-0.1489,-0.1539,-0.154,-0.1546,-0.1513,-0.1473,-0.1377,-0.1258,-0.1095,-0.0783,-0.0824,-0.0461,-0.0474,-0.0199,-0.0183,-0.0068,-0.0045,0.009,-0.0324,-0.0325,-0.0326,-0.0327,0,-0.0858,-0.0986,-0.1214,-0.1288,-0.1445,-0.1537,-0.1614,-0.1641,-0.1636,-0.1608,-0.1554,-0.1458,-0.1252,-0.101,-0.0791,-0.0417,-0.0459,-0.0211,-0.0114,-0.0102,-0.0087,0.0064,0.0074,-0.0313,-0.0316,-0.0319,-0.0321,0,-0.0821,-0.0967,-0.1161,-0.1378,-0.1447,-0.1545,-0.1668,-0.1694,-0.1695,-0.1645,-0.1629,-0.1471,-0.1163,-0.0893,-0.0532,-0.0366,0.0037,0.0084,0.0134,0.0225,0.0482,0.0483,0.0722,0.0822,0.0397,0.0401,0.0405,0,-0.0831,-0.0928,-0.1184,-0.1293,-0.1402,-0.1556,-0.1628,-0.1706,-0.1707,-0.1613,-0.156,-0.1294,-0.1065,-0.0504,-0.0169,0.0244,0.0296,0.0517,0.0389,0.0504,0.0578,0.0551,0.0614,0.0551,0.0556,0.056,0.0562,0,-0.0848,-0.0913,-0.1048,-0.1262,-0.14,-0.1543,-0.1645,-0.1654,-0.1671,-0.1603,-0.1418,-0.1241,-0.0737,-0.0276,0.0226,0.0448,0.0559,0.0603,0.0687,0.0667,0.0682,0.0823,0.0385,0.0595,0.0592,0.0589,0.0587,0.0586,-0.0822,-0.0899,-0.1048,-0.1238,-0.1385,-0.1485,-0.1519,-0.1554,-0.1521,-0.1371,-0.127,-0.0961,-0.0384,0.0301,0.0513,0.0945,0.0868,0.104,0.104,0.1009,0.1045,0.071,0.1021,0.102,0.1019,0.1019,0.1018,0,-0.0827,-0.0887,-0.1029,-0.1225,-0.1317,-0.1423,-0.1488,-0.145,-0.1338,-0.1195,-0.1011,-0.0429,0.0141,0.0608,0.1227,0.1377,0.1349,0.1441,0.1379,0.1428,0.1128,0.1068,0.1441,0.1441,0.1441,0.1441,0.1441,0.1441,-0.0831,-0.0922,-0.0979,-0.1118,-0.1221,-0.1278,-0.1281,-0.1199,-0.1084,-0.0756,-0.0466,-0.0236,0.0432,0.1166,0.1643,0.1679,0.1761,0.1748,0.1816,0.1547,0.1507,0.1468,0.1413,0.1853,0.1853,0.2106,0.2108,0.211]}],[{"header":{"parameterUnit":"m.s-1","parameterCategory":2,"la1":30.2991,"la2":30.254,"lo1":-89.0895,"lo2":-89.0444,"dy":0.0017,"dx":0.0017,"nx":28,"ny":28,"refTime":"2025-07-21T09:00:00:Z","depth":"2","parameterNumber":2,"parameterNumberName":"U-component_of_CURRENTS"},"data":[0,0,0,0,0,0,0,0,0,0,0,0,0,0,0,0,0,0,0,0,0,0,0,0,0,0,0,0,0,0,0,0,0,0,0,0,0,0,0,0,0,0,0,0,0,0,0,0,0,0,0,0,0,0,0,0,0,0,-0.2117,-0.2117,0,-0.2252,-0.2254,-0.2256,-0.2312,-0.2311,-0.231,-0.2309,-0.2482,-0.2487,-0.2492,0,0,0,0,0,0,0,0,0,0,0,0,0,-0.2064,-0.2065,-0.2117,-0.2118,-0.2119,-0.2252,-0.2254,-0.2257,-0.2312,-0.2311,-0.231,-0.2309,-0.248,-0.2486,-0.2493,0,0,0,0,0,0,0,0,0,0,0,0,0,-0.2139,-0.2065,-0.2116,-0.2157,-0.2161,-0.2251,-0.2254,-0.2258,-0.2312,-0.2311,-0.2309,-0.2308,-0.2478,-0.2486,-0.2494,-0.2574,0,0,-0.2519,-0.2523,0,0,0,0,0,0,0,0,-0.2134,-0.2141,-0.215,-0.2154,-0.2159,-0.2257,-0.2299,-0.2363,-0.2313,-0.2263,-0.2309,-0.2307,-0.2406,-0.242,-0.2459,-0.2582,-0.2589,-0.252,-0.2525,-0.2528,-0.2531,0,0,0,0,0,0,0,-0.2129,-0.2137,-0.2178,-0.2151,-0.2157,-0.2222,-0.223,-0.2313,-0.2347,-0.2267,-0.2269,-0.2273,-0.241,-0.2451,-0.2463,-0.2592,-0.252,-0.2527,-0.2532,-0.2535,-0.2781,-0.2783,0,0,0,0,0,0,-0.2091,-0.2131,-0.2173,-0.2181,-0.2135,-0.2223,-0.2233,-0.2233,-0.2346,-0.2359,-0.2275,-0.2275,-0.2438,-0.2454,-0.247,-0.2508,-0.2528,-0.2536,-0.2541,-0.278,-0.2782,-0.2783,0,0,0,0,0,0,-0.2089,-0.2093,-0.2168,-0.2154,-0.2167,-0.2223,-0.2225,-0.2236,-0.2286,-0.235,-0.2365,-0.2311,-0.2437,-0.2458,-0.2565,-0.2517,-0.254,-0.2547,-0.2778,-0.278,-0.2782,-0.2624,0,0,0,0,0,0,-0.2087,-0.2092,-0.209,-0.2151,-0.2166,-0.2206,-0.2226,-0.224,-0.2286,-0.229,-0.2387,-0.2401,-0.2438,-0.2553,-0.2573,-0.2528,-0.2554,-0.2776,-0.2779,-0.2782,-0.2627,-0.2621,-0.2615,0,0,0,0,0,-0.2085,-0.2091,-0.2089,-0.2094,-0.2157,-0.2205,-0.222,-0.2261,-0.2289,-0.2305,-0.2394,-0.2398,-0.2584,-0.2563,-0.2586,-0.2541,-0.2774,-0.2778,-0.2781,-0.263,-0.2622,-0.2615,0,0,0,0,0,0,-0.2078,-0.2098,-0.2097,-0.211,-0.2141,-0.2211,-0.2235,-0.2274,-0.236,-0.2373,-0.2445,-0.2467,-0.2516,-0.2593,-0.2566,-0.263,-0.267,-0.2679,-0.2547,-0.254,-0.2534,-0.2536,-0.2561,0,0,0,0,0,-0.2069,-0.2072,-0.2102,-0.2113,-0.2124,-0.2186,-0.2217,-0.2244,-0.232,-0.2357,-0.2432,-0.2513,-0.2553,-0.2599,-0.2655,-0.273,-0.2768,-0.2716,-0.2709,-0.2703,-0.2727,-0.2735,-0.2729,-0.2795,-0.2795,-0.2795,0,0,-0.2071,-0.208,-0.2085,-0.211,-0.2144,-0.2173,-0.2203,-0.2246,-0.2276,-0.2365,-0.2454,-0.2493,-0.2569,-0.2611,-0.2642,-0.267,-0.2706,-0.2708,-0.27,-0.2729,-0.2737,-0.273,-0.2724,-0.2797,-0.2797,-0.2797,0,0,-0.2077,-0.2082,-0.2084,-0.2108,-0.2139,-0.2175,-0.2185,-0.226,-0.2291,-0.2373,-0.2417,-0.245,-0.2569,-0.2586,-0.2611,-0.2631,-0.2657,-0.2643,-0.2626,-0.263,-0.2623,-0.2617,-0.2637,-0.2635,-0.2655,-0.2655,-0.2655,0,-0.2075,-0.208,-0.2097,-0.211,-0.2132,-0.2173,-0.2196,-0.2237,-0.2343,-0.2375,-0.2381,-0.2508,-0.254,-0.2577,-0.2561,-0.2602,-0.2635,-0.2624,-0.2613,-0.2609,-0.2606,-0.2628,-0.2627,-0.2648,-0.2649,-0.265,-0.265,0,-0.2085,-0.2092,-0.2101,-0.212,-0.2149,-0.2176,-0.2215,-0.2262,-0.2301,-0.2339,-0.2385,-0.2436,-0.2512,-0.2493,-0.2528,-0.2525,-0.2563,-0.2576,-0.2607,-0.2588,-0.2615,-0.2616,-0.2638,-0.264,-0.2642,-0.2644,0,0,-0.2063,-0.2097,-0.2098,-0.2109,-0.2155,-0.2182,-0.2224,-0.2269,-0.2316,-0.2353,-0.2414,-0.2409,-0.2436,-0.2473,-0.2499,-0.2498,-0.2457,-0.2532,-0.2536,-0.2511,-0.2488,-0.2298,-0.2283,-0.2462,-0.2462,-0.2462,-0.2505,0,-0.2059,-0.2078,-0.2103,-0.2135,-0.215,-0.2198,-0.2241,-0.2288,-0.2335,-0.2411,-0.2409,-0.2468,-0.2428,-0.2461,-0.244,-0.2494,-0.2461,-0.2446,-0.2552,-0.2556,-0.2352,-0.2277,-0.2093,-0.2097,-0.2507,-0.2508,-0.2508,0,-0.2048,-0.2064,-0.2086,-0.214,-0.2153,-0.2183,-0.2261,-0.2305,-0.239,-0.2432,-0.2467,-0.251,-0.2534,-0.2491,-0.2507,-0.251,-0.2477,-0.2481,-0.2483,-0.237,-0.2367,-0.2196,-0.2086,-0.2512,-0.2511,-0.2511,-0.2511,0,-0.2009,-0.205,-0.2066,-0.2083,-0.2153,-0.2177,-0.222,-0.2304,-0.2365,-0.2459,-0.2529,-0.2556,-0.258,-0.2575,-0.2506,-0.255,-0.2494,-0.2566,-0.2352,-0.2342,-0.224,-0.2217,-0.2517,-0.2517,-0.2517,-0.2517,-0.2517,0,-0.1986,-0.1996,-0.2047,-0.2056,-0.2089,-0.2152,-0.221,-0.2269,-0.2389,-0.2442,-0.2534,-0.2563,-0.2594,-0.2558,-0.2531,-0.24,-0.2493,-0.2332,-0.2321,-0.2178,-0.2151,-0.2573,-0.2578,-0.2519,-0.2518,-0.2518,-0.2518,0,-0.1931,-0.1964,-0.1982,-0.2046,-0.2065,-0.2085,-0.2193,-0.2247,-0.2374,-0.246,-0.2499,-0.2583,-0.2508,-0.2471,-0.2429,-0.239,-0.2323,-0.2219,-0.2035,-0.1997,-0.2203,-0.2201,-0.213,-0.2123,-0.2118,-0.2113,-0.2109,0,-0.1901,-0.1903,-0.1952,-0.1955,-0.1976,-0.2025,-0.2062,-0.2202,-0.2285,-0.2422,-0.2468,-0.2434,-0.2325,-0.2202,-0.2083,-0.1975,-0.2058,-0.1785,-0.1813,-0.2156,-0.2155,-0.2163,-0.2169,-0.1646,-0.1638,-0.1632,-0.1627,0,-0.1839,-0.1854,-0.1868,-0.1872,-0.1896,-0.1942,-0.2023,-0.2099,-0.2245,-0.2285,-0.2283,-0.2203,-0.2046,-0.1806,-0.1628,-0.1567,-0.1816,-0.1657,-0.205,-0.1733,-0.1691,-0.1692,-0.1717,-0.1573,-0.1578,-0.1582,-0.1585,-0.1587,-0.1781,-0.177,-0.1779,-0.1775,-0.1802,-0.1841,-0.1836,-0.1924,-0.1962,-0.1972,-0.1986,-0.1784,-0.1773,-0.139,-0.1265,-0.1192,-0.1368,-0.1389,-0.1413,-0.1443,-0.1339,-0.1284,-0.1074,-0.1076,-0.1078,-0.108,-0.1082,0,-0.1696,-0.1688,-0.168,-0.1678,-0.165,-0.1714,-0.1786,-0.1756,-0.1689,-0.162,-0.1496,-0.1291,-0.1075,-0.1041,-0.0833,-0.0831,-0.0889,-0.0813,-0.0908,-0.0959,-0.1005,-0.0885,-0.0498,-0.0496,-0.0495,-0.0494,0,0,-0.165,-0.1604,-0.1596,-0.1513,-0.151,-0.1451,-0.1447,-0.1379,-0.131,-0.1116,-0.0957,-0.0955,-0.0983,-0.0759,-0.0701,-0.0539,-0.0743,-0.0497,-0.0957,-0.1113,-0.1158,-0.1316,-0.1182,0,0,0,0,0]},{"header":{"parameterUnit":"m.s-1","parameterCategory":2,"la1":30.2991,"la2":30.254,"lo1":-89.0895,"lo2":-89.0444,"dy":0.0017,"dx":0.0017,"nx":28,"ny":28,"refTime":"2025-07-21T09:00:00:Z","depth":"2","parameterNumber":3,"parameterNumberName":"V-component_of_CURRENTS"},"data":[0,0,0,0,0,0,0,0,0,0,0,0,0,0,0,0,0,0,0,0,0,0,0,0,0,0,0,0,0,0,0,0,0,0,0,0,0,0,0,0,0,0,0,0,0,0,0,0,0,0,0,0,0,0,0,0,0,0,-0.0141,-0.014,0,-0.0059,-0.0058,-0.0057,0.0011,0.0012,0.0012,0.0013,0.0213,0.0218,0.0222,0,0,0,0,0,0,0,0,0,0,0,0,0,-0.0227,-0.0226,-0.0141,-0.014,-0.0139,-0.0059,-0.0058,-0.0057,0.0011,0.0012,0.0012,0.0013,0.0211,0.0217,0.0223,0,0,0,0,0,0,0,0,0,0,0,0,0,-0.017,-0.0225,-0.0141,-0.0097,-0.0093,-0.006,-0.0058,-0.0056,0.0011,0.0012,0.0012,0.0013,0.0209,0.0217,0.0224,0.0253,0,0,0.0246,0.0249,0,0,0,0,0,0,0,0,-0.0173,-0.0167,-0.0105,-0.01,-0.0095,-0.0035,-0.0015,0.0052,0.0011,-0.0026,0.0013,0.0013,0.0139,0.0152,0.0167,0.0262,0.0271,0.0247,0.0251,0.0254,0.0256,0,0,0,0,0,0,0,-0.0177,-0.017,-0.0106,-0.0104,-0.0098,-0.0079,-0.0069,-0.0002,0.0055,-0.0023,-0.0018,-0.0013,0.0143,0.016,0.0173,0.0274,0.0246,0.0253,0.0257,0.026,0.0508,0.051,0,0,0,0,0,0,-0.0193,-0.0174,-0.0109,-0.0104,-0.0136,-0.0078,-0.0067,-0.0054,0.0052,0.0067,-0.0014,-0.001,0.0147,0.0164,0.018,0.0227,0.0254,0.0261,0.0265,0.0505,0.0508,0.0511,0,0,0,0,0,0,-0.0195,-0.0188,-0.0112,-0.0139,-0.0128,-0.0078,-0.0062,-0.0052,-0.0034,0.0057,0.0075,-0.0006,0.0148,0.017,0.0253,0.0235,0.0264,0.0271,0.0503,0.0506,0.0509,0.0317,0,0,0,0,0,0,-0.0198,-0.0189,-0.0189,-0.014,-0.0128,-0.0102,-0.0063,-0.0051,-0.0033,-0.0027,0.007,0.0089,0.0151,0.0242,0.026,0.0245,0.0276,0.05,0.0504,0.0508,0.032,0.0313,0.0307,0,0,0,0,0,-0.0201,-0.0204,-0.019,-0.0182,-0.0128,-0.0103,-0.0095,-0.0054,-0.0034,-0.0033,0.0049,0.0086,0.0283,0.0249,0.027,0.0256,0.0498,0.0503,0.0508,0.0323,0.0314,0.0307,0,0,0,0,0,0,-0.024,-0.0196,-0.0179,-0.0168,-0.0143,-0.0092,-0.0087,-0.0061,-0.0,0.0013,0.0101,0.0126,0.0187,0.0273,0.0234,0.0354,0.0402,0.0412,0.0255,0.0248,0.0241,0.0238,0.0283,0,0,0,0,0,-0.0251,-0.025,-0.02,-0.0201,-0.0182,-0.0137,-0.0123,-0.0097,-0.0038,-0.0012,0.0056,0.0152,0.0225,0.0275,0.0351,0.0413,0.0474,0.0434,0.0427,0.0419,0.0441,0.0514,0.0513,0.0527,0.0527,0.0527,0,0,-0.0271,-0.0249,-0.0248,-0.0211,-0.0183,-0.0167,-0.0126,-0.0109,-0.0096,0.0003,0.005,0.0117,0.0237,0.0296,0.0335,0.0364,0.0441,0.0426,0.0417,0.0444,0.0519,0.0516,0.0514,0.053,0.053,0.0529,0,0,-0.0309,-0.0283,-0.0286,-0.0265,-0.0231,-0.0201,-0.02,-0.0146,-0.0119,-0.0069,0.0004,0.0071,0.0187,0.026,0.0315,0.0334,0.039,0.0363,0.0329,0.0397,0.0394,0.0393,0.041,0.0412,0.0371,0.0371,0.0371,0,-0.0332,-0.0324,-0.0288,-0.0279,-0.0267,-0.0219,-0.0215,-0.0182,-0.0114,-0.0082,-0.0067,0.0102,0.0172,0.0263,0.0262,0.0309,0.0348,0.0324,0.0379,0.038,0.0382,0.04,0.0404,0.0362,0.0363,0.0364,0.0365,0,-0.0368,-0.0355,-0.0355,-0.0328,-0.0313,-0.0307,-0.0255,-0.0234,-0.0199,-0.0153,-0.0073,0.0024,0.0132,0.0153,0.0206,0.0267,0.0284,0.0334,0.037,0.0367,0.0388,0.0396,0.035,0.0353,0.0356,0.0358,0,0,-0.0414,-0.0386,-0.0382,-0.0379,-0.0337,-0.033,-0.0306,-0.026,-0.0238,-0.0171,-0.0124,-0.0021,0.0032,0.0105,0.0174,0.0234,0.0235,0.0281,0.0289,0.0247,0.0345,0.0398,0.0412,0.0281,0.0283,0.0285,0.0329,0,-0.0446,-0.0454,-0.0426,-0.0432,-0.0422,-0.0377,-0.0363,-0.0318,-0.0266,-0.021,-0.0104,-0.0035,0.0016,0.0051,0.0116,0.0203,0.026,0.0217,0.0405,0.041,0.0416,0.0427,0.0365,0.0407,0.0338,0.0339,0.034,0,-0.0476,-0.0476,-0.0489,-0.0475,-0.0466,-0.0466,-0.0432,-0.0412,-0.0318,-0.0277,-0.0182,-0.0094,-0.0006,0.0046,0.0188,0.0152,0.0247,0.0319,0.0323,0.0459,0.0482,0.0422,0.0425,0.0355,0.0354,0.0353,0.0352,0,-0.0532,-0.0515,-0.0536,-0.0531,-0.0506,-0.0506,-0.0494,-0.0427,-0.041,-0.0309,-0.0294,-0.0149,-0.0125,0.0041,0.0199,0.018,0.037,0.0363,0.0509,0.051,0.0548,0.0552,0.0506,0.0506,0.0506,0.0506,0.0506,0,-0.0573,-0.0581,-0.0564,-0.0578,-0.0594,-0.0559,-0.0566,-0.0527,-0.0473,-0.0463,-0.0335,-0.0296,-0.0127,0.0012,0.0187,0.0373,0.0364,0.0513,0.0545,0.0478,0.0475,0.0526,0.0528,0.0508,0.0507,0.0507,0.0507,0,-0.0622,-0.0613,-0.0634,-0.0627,-0.0622,-0.0636,-0.0631,-0.0632,-0.0589,-0.0575,-0.0552,-0.0444,-0.0273,-0.0039,0.0197,0.0307,0.0532,0.0626,0.0516,0.0536,0.0607,0.0599,0.0719,0.0721,0.0724,0.0726,0.0727,0,-0.0646,-0.0664,-0.0682,-0.0697,-0.0693,-0.0706,-0.0718,-0.0685,-0.0692,-0.0653,-0.0653,-0.0502,-0.034,0.0022,0.0276,0.0599,0.0645,0.0688,0.0667,0.062,0.0638,0.0627,0.0616,0.0603,0.0603,0.0603,0.0604,0,-0.0685,-0.0701,-0.0729,-0.0768,-0.0788,-0.081,-0.0828,-0.0851,-0.0832,-0.0808,-0.0756,-0.0611,-0.0289,0.0027,0.0437,0.0611,0.0627,0.0704,0.0713,0.0576,0.0521,0.0535,0.0526,0.0607,0.0607,0.0606,0.0606,0.0606,-0.0715,-0.0751,-0.0799,-0.0833,-0.0868,-0.0912,-0.0929,-0.0943,-0.0945,-0.0879,-0.0801,-0.05,-0.0238,0.0396,0.0572,0.0708,0.0718,0.074,0.0734,0.0729,0.0726,0.0681,0.0791,0.0792,0.0793,0.0793,0.0794,0,-0.0737,-0.0791,-0.0848,-0.0909,-0.0965,-0.0961,-0.0996,-0.0982,-0.0974,-0.0822,-0.0704,-0.0279,0.0107,0.0439,0.0636,0.073,0.0672,0.0744,0.0642,0.0639,0.0636,0.0624,0.0665,0.0665,0.0665,0.0665,0,0,-0.0752,-0.0822,-0.0865,-0.097,-0.1015,-0.1057,-0.1065,-0.1013,-0.0879,-0.0712,-0.0428,-0.0083,0.0294,0.044,0.0521,0.0588,0.0569,0.0579,0.0667,0.0525,0.052,0.0622,0.0601,0,0,0,0,0]}],[{"header":{"parameterUnit":"m.s-1","parameterCategory":2,"la1":30.2991,"la2":30.254,"lo1":-89.0895,"lo2":-89.0444,"dy":0.0017,"dx":0.0017,"nx":28,"ny":28,"refTime":"2025-07-21T09:00:00:Z","depth":"4","parameterNumber":2,"parameterNumberName":"U-component_of_CURRENTS"},"data":[0,0,0,0,0,0,0,0,0,0,0,0,0,0,0,0,0,0,0,0,0,0,0,0,0,0,0,0,0,0,0,0,0,0,0,0,0,0,0,0,0,0,0,0,0,0,0,0,0,0,0,0,0,0,0,0,0,0,-0.1561,-0.1561,0,-0.1608,-0.1609,-0.1609,-0.1624,-0.1624,-0.1624,-0.1624,-0.1673,-0.1674,-0.1676,0,0,0,0,0,0,0,0,0,0,0,0,0,-0.1508,-0.1509,-0.156,-0.1561,-0.1562,-0.1608,-0.1609,-0.1609,-0.1624,-0.1624,-0.1624,-0.1623,-0.1672,-0.1674,-0.1676,0,0,0,0,0,0,0,0,0,0,0,0,0,-0.154,-0.1509,-0.156,-0.1575,-0.1577,-0.1608,-0.1609,-0.1609,-0.1624,-0.1624,-0.1624,-0.1623,-0.1672,-0.1674,-0.1676,-0.1695,0,0,-0.1683,-0.1684,0,0,0,0,0,0,0,0,-0.1538,-0.1542,-0.1572,-0.1574,-0.1576,-0.1611,-0.1608,-0.1638,-0.1624,-0.1606,-0.1624,-0.1623,-0.1653,-0.1656,-0.1665,-0.1697,-0.1699,-0.1683,-0.1684,-0.1685,-0.1686,0,0,0,0,0,0,0,-0.1536,-0.154,-0.1579,-0.1573,-0.1576,-0.1589,-0.1593,-0.1614,-0.1629,-0.1607,-0.1608,-0.1615,-0.1654,-0.1663,-0.1666,-0.17,-0.1683,-0.1685,-0.1686,-0.1687,-0.1774,-0.1775,0,0,0,0,0,0,-0.1531,-0.1538,-0.1577,-0.158,-0.1557,-0.159,-0.1594,-0.1599,-0.1629,-0.1634,-0.1615,-0.1616,-0.1659,-0.1664,-0.1668,-0.1737,-0.1685,-0.1687,-0.1688,-0.1773,-0.1774,-0.1776,0,0,0,0,0,0,-0.1529,-0.1534,-0.1575,-0.1561,-0.1567,-0.1591,-0.1597,-0.16,-0.163,-0.1635,-0.164,-0.1643,-0.1659,-0.1665,-0.1697,-0.1737,-0.1688,-0.169,-0.1772,-0.1774,-0.1775,-0.1845,0,0,0,0,0,0,-0.1528,-0.1533,-0.1549,-0.156,-0.1568,-0.1602,-0.1597,-0.1602,-0.1633,-0.1634,-0.166,-0.1663,-0.1659,-0.1694,-0.1699,-0.1739,-0.1692,-0.1771,-0.1773,-0.1774,-0.1841,-0.1849,-0.1855,0,0,0,0,0,-0.1526,-0.1543,-0.1549,-0.1555,-0.1584,-0.1603,-0.1608,-0.1623,-0.1635,-0.1649,-0.1665,-0.1663,-0.171,-0.1697,-0.1703,-0.1744,-0.177,-0.1772,-0.1774,-0.1838,-0.1847,-0.1855,0,0,0,0,0,0,-0.1531,-0.1546,-0.1553,-0.1576,-0.1593,-0.1606,-0.1629,-0.164,-0.1665,-0.1675,-0.1679,-0.1683,-0.1723,-0.1722,-0.1707,-0.1772,-0.1739,-0.1743,-0.1786,-0.1794,-0.1801,-0.18,-0.1694,0,0,0,0,0,-0.1539,-0.1556,-0.1569,-0.159,-0.1603,-0.1622,-0.1639,-0.1648,-0.1667,-0.1679,-0.1697,-0.1716,-0.1735,-0.1755,-0.1765,-0.1809,-0.1785,-0.1836,-0.1843,-0.1849,-0.1851,-0.1841,-0.1847,-0.1783,-0.1783,-0.1783,0,0,-0.1551,-0.1559,-0.1572,-0.1593,-0.1612,-0.1638,-0.1632,-0.1663,-0.1692,-0.1681,-0.1734,-0.1741,-0.1749,-0.1789,-0.1808,-0.1797,-0.1855,-0.1852,-0.1857,-0.1856,-0.1844,-0.185,-0.1855,-0.1784,-0.1784,-0.1784,0,0,-0.1567,-0.1589,-0.1605,-0.1624,-0.1651,-0.1665,-0.1679,-0.1706,-0.1728,-0.177,-0.1769,-0.1798,-0.1835,-0.1847,-0.1858,-0.191,-0.1885,-0.1919,-0.1966,-0.1956,-0.1961,-0.1966,-0.1943,-0.1945,-0.193,-0.1931,-0.1931,0,-0.158,-0.1599,-0.1614,-0.1635,-0.1658,-0.1681,-0.1708,-0.1738,-0.1773,-0.1793,-0.1794,-0.1848,-0.1862,-0.1906,-0.1927,-0.1928,-0.1909,-0.1937,-0.1965,-0.1969,-0.1972,-0.1948,-0.1949,-0.1934,-0.1934,-0.1933,-0.1933,0,-0.16,-0.1629,-0.1644,-0.1678,-0.1706,-0.1734,-0.1771,-0.1808,-0.184,-0.186,-0.191,-0.1925,-0.195,-0.1971,-0.1972,-0.2011,-0.1985,-0.1969,-0.1945,-0.1983,-0.1955,-0.1954,-0.1939,-0.1938,-0.1937,-0.1936,0,0,-0.1586,-0.1645,-0.1654,-0.1678,-0.1731,-0.1752,-0.1814,-0.1859,-0.1898,-0.1939,-0.198,-0.2028,-0.203,-0.2041,-0.2048,-0.2059,-0.2074,-0.2034,-0.2032,-0.2013,-0.2043,-0.1894,-0.1879,-0.2062,-0.2062,-0.2062,-0.2014,0,-0.1595,-0.1639,-0.1671,-0.1727,-0.1752,-0.1802,-0.1853,-0.1903,-0.1945,-0.1991,-0.2021,-0.2056,-0.2059,-0.2075,-0.2089,-0.2076,-0.2076,-0.2087,-0.2008,-0.2006,-0.1869,-0.1874,-0.2064,-0.2014,-0.2014,-0.2014,-0.2014,0,-0.1593,-0.1623,-0.1676,-0.1745,-0.1763,-0.1808,-0.1886,-0.1933,-0.2002,-0.2032,-0.2073,-0.2088,-0.2126,-0.2112,-0.2109,-0.2115,-0.2085,-0.207,-0.2067,-0.1902,-0.1855,-0.1968,-0.2012,-0.2012,-0.2012,-0.2013,-0.2013,0,-0.1552,-0.1625,-0.1667,-0.1693,-0.1776,-0.1819,-0.1868,-0.1944,-0.1972,-0.2053,-0.2063,-0.2117,-0.2117,-0.2116,-0.2096,-0.2101,-0.207,-0.2064,-0.1899,-0.1889,-0.2009,-0.2004,-0.2043,-0.2044,-0.2044,-0.2044,-0.2044,0,-0.1526,-0.1564,-0.1658,-0.1678,-0.1733,-0.1803,-0.1859,-0.1919,-0.198,-0.198,-0.207,-0.2057,-0.2115,-0.2104,-0.2097,-0.1986,-0.2061,-0.1897,-0.1862,-0.2039,-0.2039,-0.2008,-0.2004,-0.2042,-0.2042,-0.2043,-0.2043,0,-0.1465,-0.1529,-0.158,-0.1679,-0.1712,-0.175,-0.183,-0.1851,-0.1929,-0.1928,-0.1944,-0.2002,-0.1976,-0.2016,-0.2001,-0.1939,-0.1888,-0.1829,-0.2013,-0.1992,-0.1715,-0.1716,-0.1631,-0.1625,-0.162,-0.1616,-0.1613,0,-0.1431,-0.1454,-0.1563,-0.1586,-0.1633,-0.1697,-0.1722,-0.1812,-0.1809,-0.1856,-0.1821,-0.184,-0.1858,-0.1724,-0.1796,-0.1764,-0.1743,-0.1708,-0.1717,-0.1695,-0.1671,-0.168,-0.1687,-0.1605,-0.1604,-0.1603,-0.1601,0,-0.1362,-0.1417,-0.1456,-0.1503,-0.1541,-0.1566,-0.1602,-0.1581,-0.164,-0.1726,-0.1635,-0.1618,-0.1581,-0.1593,-0.1581,-0.1564,-0.1736,-0.1657,-0.1667,-0.1675,-0.1663,-0.1646,-0.1659,-0.1584,-0.1587,-0.1588,-0.1589,0,-0.1308,-0.1319,-0.1373,-0.1398,-0.1437,-0.1403,-0.1445,-0.1411,-0.1417,-0.1462,-0.1424,-0.1462,-0.1529,-0.1484,-0.1477,-0.145,-0.1424,-0.138,-0.1404,-0.1424,-0.1383,-0.134,-0.1118,0,0,0,0,0,-0.1243,-0.1239,-0.1257,-0.1263,-0.129,-0.1303,-0.1341,-0.1375,-0.1425,-0.1304,-0.1353,-0.1312,-0.1275,-0.132,-0.1248,-0.1401,-0.1451,-0.1313,-0.1418,-0.1491,-0.151,-0.1485,0,0,0,0,0,0,-0.1198,-0.1219,-0.1218,-0.1135,-0.1108,-0.1105,-0.112,-0.1156,-0.1098,-0.1168,-0.1162,-0.1219,-0.1226,-0.1289,-0.1218,-0.1229,-0.1262,-0.1353,-0.1349,-0.148,-0.1497,-0.1513,-0.1494,0,0,0,0,0]},{"header":{"parameterUnit":"m.s-1","parameterCategory":2,"la1":30.2991,"la2":30.254,"lo1":-89.0895,"lo2":-89.0444,"dy":0.0017,"dx":0.0017,"nx":28,"ny":28,"refTime":"2025-07-21T09:00:00:Z","depth":"4","parameterNumber":3,"parameterNumberName":"V-component_of_CURRENTS"},"data":[0,0,0,0,0,0,0,0,0,0,0,0,0,0,0,0,0,0,0,0,0,0,0,0,0,0,0,0,0,0,0,0,0,0,0,0,0,0,0,0,0,0,0,0,0,0,0,0,0,0,0,0,0,0,0,0,0,0,-0.0105,-0.0105,0,-0.0061,-0.0061,-0.006,-0.0018,-0.0018,-0.0017,-0.0017,0.005,0.0052,0.0053,0,0,0,0,0,0,0,0,0,0,0,0,0,-0.0155,-0.0155,-0.0105,-0.0105,-0.0104,-0.0061,-0.0061,-0.006,-0.0018,-0.0018,-0.0017,-0.0017,0.005,0.0052,0.0053,0,0,0,0,0,0,0,0,0,0,0,0,0,-0.0124,-0.0154,-0.0105,-0.0079,-0.0076,-0.0062,-0.0061,-0.006,-0.0018,-0.0018,-0.0017,-0.0016,0.0049,0.0051,0.0053,0.0052,0,0,0.006,0.0061,0,0,0,0,0,0,0,0,-0.0126,-0.0122,-0.0083,-0.0081,-0.0078,-0.0045,-0.0054,-0.0022,-0.0019,-0.004,-0.0017,-0.0016,0.002,0.0024,0.0032,0.0055,0.0058,0.006,0.0061,0.0062,0.0063,0,0,0,0,0,0,0,-0.0128,-0.0124,-0.0087,-0.0083,-0.0079,-0.007,-0.0065,-0.0047,-0.0013,-0.0038,-0.0035,-0.0031,0.0022,0.0029,0.0034,0.0059,0.006,0.0062,0.0063,0.0064,0.0095,0.0095,0,0,0,0,0,0,-0.0136,-0.0126,-0.0089,-0.0086,-0.0101,-0.007,-0.0064,-0.0056,-0.0014,-0.0007,-0.0032,-0.0029,0.0026,0.0031,0.0036,0.0055,0.0062,0.0064,0.0065,0.0096,0.0095,0.0095,0,0,0,0,0,0,-0.0137,-0.0133,-0.009,-0.0106,-0.01,-0.007,-0.0061,-0.0055,-0.0047,-0.001,-0.0003,-0.003,0.0026,0.0033,0.0047,0.0057,0.0065,0.0067,0.0096,0.0096,0.0095,0.0082,0,0,0,0,0,0,-0.0138,-0.0133,-0.0135,-0.0106,-0.0099,-0.0089,-0.0062,-0.0055,-0.0046,-0.0043,-0.0006,0.0001,0.0028,0.0044,0.0049,0.006,0.0068,0.0097,0.0096,0.0095,0.0083,0.0081,0.0079,0,0,0,0,0,-0.014,-0.0145,-0.0135,-0.0131,-0.0101,-0.009,-0.0086,-0.0061,-0.0047,-0.005,-0.0024,0.0,0.0044,0.0045,0.0052,0.0064,0.0097,0.0096,0.0095,0.0083,0.0081,0.0079,0,0,0,0,0,0,-0.0167,-0.014,-0.0129,-0.0125,-0.0113,-0.0083,-0.0083,-0.0067,-0.0049,-0.0044,-0.0007,0.0001,0.0019,0.0035,0.0036,0.0068,0.0075,0.0075,0.0064,0.0062,0.006,0.0072,0.007,0,0,0,0,0,-0.0175,-0.0175,-0.0146,-0.0149,-0.0139,-0.0113,-0.0107,-0.0091,-0.007,-0.0061,-0.0035,-0.0008,0.002,0.0034,0.0054,0.0069,0.0102,0.008,0.0078,0.0077,0.0089,0.0173,0.0181,0.0092,0.0092,0.0092,0,0,-0.019,-0.0175,-0.0176,-0.0156,-0.0141,-0.0134,-0.0107,-0.0101,-0.0094,-0.0057,-0.0043,-0.0016,0.0019,0.004,0.005,0.0057,0.0107,0.0075,0.0074,0.0088,0.0173,0.0182,0.019,0.0092,0.0092,0.0092,0,0,-0.0216,-0.0201,-0.0205,-0.0195,-0.0177,-0.0159,-0.016,-0.0132,-0.0115,-0.0105,-0.0068,-0.003,-0.0012,0.0037,0.006,0.0059,0.0092,0.0051,0.006,0.014,0.0149,0.0158,0.0162,0.0172,0.0054,0.0054,0.0054,0,-0.0233,-0.0231,-0.0208,-0.0207,-0.0202,-0.0172,-0.0174,-0.0154,-0.0128,-0.0107,-0.0107,-0.0031,-0.0003,0.006,0.0058,0.0061,0.0081,0.0067,0.0141,0.0151,0.016,0.0163,0.0174,0.0053,0.0053,0.0054,0.0054,0,-0.026,-0.0256,-0.0258,-0.0244,-0.0238,-0.0239,-0.0206,-0.0196,-0.0175,-0.0142,-0.0088,-0.0038,0.0012,0.0027,0.0041,0.0117,0.0098,0.0129,0.0153,0.0168,0.0169,0.018,0.0052,0.0053,0.0053,0.0053,0,0,-0.0292,-0.028,-0.028,-0.0281,-0.0258,-0.0258,-0.0241,-0.0207,-0.0187,-0.0142,-0.0098,-0.0031,0.0009,0.0038,0.0077,0.015,0.0212,0.0158,0.0163,0.0171,0.0334,0.0266,0.0271,0.026,0.0263,0.0266,0.0292,0,-0.0317,-0.033,-0.0313,-0.0326,-0.0325,-0.0295,-0.0285,-0.025,-0.021,-0.0164,-0.0071,-0.0021,0.001,0.0035,0.0117,0.0197,0.0248,0.0199,0.0311,0.0313,0.0261,0.0286,0.0275,0.03,0.0303,0.0305,0.0306,0,-0.0341,-0.0346,-0.0365,-0.0361,-0.0358,-0.0364,-0.0337,-0.0322,-0.0238,-0.0203,-0.0115,-0.0048,0.0064,0.0085,0.0247,0.0211,0.0264,0.0326,0.0329,0.0287,0.0268,0.0293,0.0327,0.0325,0.0324,0.0322,0.0321,0,-0.0379,-0.038,-0.0401,-0.0401,-0.0391,-0.0395,-0.039,-0.0332,-0.0316,-0.0218,-0.0188,-0.0043,0.0017,0.0147,0.0252,0.0259,0.0412,0.0442,0.0425,0.0417,0.0477,0.0469,0.0555,0.0555,0.0555,0.0555,0.0555,0,-0.0405,-0.0421,-0.0424,-0.0438,-0.0461,-0.0439,-0.0446,-0.0414,-0.036,-0.0334,-0.0212,-0.016,0.0042,0.0146,0.025,0.0353,0.041,0.0431,0.044,0.0459,0.0449,0.0482,0.0473,0.0555,0.0555,0.0555,0.0555,0,-0.0436,-0.0439,-0.0466,-0.0475,-0.0481,-0.05,-0.0507,-0.0504,-0.0449,-0.041,-0.038,-0.0234,-0.0086,0.0075,0.0271,0.0326,0.0449,0.046,0.0411,0.0416,0.0394,0.0384,0.0469,0.0467,0.0465,0.0464,0.0463,0,-0.045,-0.0469,-0.0507,-0.0531,-0.0539,-0.0564,-0.0582,-0.0552,-0.0543,-0.0461,-0.0441,-0.0296,-0.0189,0.003,0.0197,0.038,0.0402,0.0426,0.0475,0.0394,0.0395,0.0387,0.0379,0.0461,0.046,0.046,0.046,0,-0.0475,-0.0498,-0.0528,-0.0582,-0.0616,-0.0645,-0.0663,-0.0666,-0.0623,-0.0578,-0.0474,-0.034,-0.0191,0.0013,0.0135,0.0271,0.0408,0.0412,0.0417,0.0464,0.0386,0.0386,0.038,0.0455,0.0455,0.0456,0.0456,0,-0.0498,-0.0533,-0.0583,-0.0627,-0.0676,-0.0708,-0.0712,-0.0692,-0.0674,-0.0574,-0.0549,-0.0362,-0.024,-0.0049,0.007,0.0196,0.0245,0.0273,0.0286,0.0293,0.0241,0.0117,0.012,0,0,0,0,0,-0.0509,-0.0562,-0.0619,-0.0672,-0.0724,-0.0744,-0.0758,-0.0748,-0.0711,-0.0646,-0.0591,-0.0445,-0.0231,-0.0125,-0.0005,0.0037,0.0248,0.0175,0.0282,0.0426,0.0432,0.0397,0,0,0,0,0,0,-0.0523,-0.0588,-0.0627,-0.0701,-0.0741,-0.0789,-0.0798,-0.077,-0.0718,-0.0655,-0.0523,-0.0451,-0.0223,-0.029,-0.0009,0.0029,0.0101,0.0289,0.029,0.0423,0.0428,0.0433,0.0399,0,0,0,0,0]}]]